Regional Weather Roundup
Issued by NWS Charleston, SC

Current Version | Previous Version | Graphics & Text | Print | Product List | Glossary On
Versions: 1 2 3 4 5 6 7 8 9 10 11 12 13 14 15 16 17 18 19 20 21 22 23 24 25 26 27 28 29 30 31 32 33 34 35 36 37 38 39 40 41 42 43 44 45 46 47 48 49 50
000 ASUS42 KCHS 121926 RWRCHS REGIONAL WEATHER ROUNDUP NATIONAL WEATHER SERVICE CHARLESTON SC 200 PM EST TUE DEC 12 2017 NOTE: "FAIR" INDICATES FEW OR NO CLOUDS BELOW 12,000 FEET WITH NO SIGNIFICANT WEATHER AND/OR OBSTRUCTIONS TO VISIBILITY. NOT ALL STATIONS ARE QUALITY CONTROLLED. USE DATA WITH CAUTION... ESPECIALLY DEWPOINT OBSERVATIONS. SCZ027-030-031-034>040-042>050-122000- ...SOUTHEAST SOUTH CAROLINA... CITY SKY/WX TMP DP RH WIND PRES REMARKS N CHARLESTON MOSUNNY 61 41 47 W20G28 29.68F WATERFRONT PRK N/A 60 44 55 W9 29.54F JOHNS ISLAND FAIR 63 43 48 SW18 29.69S PINOPOLIS N/A 55 43 62 W15G23 29.60F MONCKS CORNER FAIR 61 37 41 W5 29.68S SUMMERVILLE FAIR 61 37 41 W14G23 29.70F BEAUFORT MCAS MOSUNNY 63 42 46 W20G25 29.72F BEAUFORT ARPT FAIR 61 41 48 W20G25 29.72F HAZE HILTON HEAD IS SUNNY 61 41 48 W13G22 29.74F WALTERBORO CLEAR 61 36 39 W20 29.72S ALLENDALE FAIR 61 34 36 W9G21 29.73S ...SOUTHERN MIDLANDS AND PEE DEE... CITY SKY/WX TMP DP RH WIND PRES REMARKS GEORGETOWN FAIR 61 37 41 W16G24 29.66S KINGSTREE FAIR 59 36 41 SW13 29.66F ORANGEBURG SUNNY 60 33 36 W17G28 29.70F BARNWELL N/A 61 34 36 W17G25 29.74R AIKEN FAIR 55 32 41 W17G24 29.78R MANNING FAIR 61 37 41 MISG 29.68S COLUMBIA PTSUNNY 58 35 42 W18 29.71S SUMTER PTSUNNY 57 34 41 NW13G23 29.67R FLORENCE MOSUNNY 58 38 47 NW13 29.66F MYRTLE BEACH SUNNY 62 40 44 W17G24 29.64F N MYRTLE BEACH SUNNY 63 39 41 W16G24 29.62F $$ GAZ063-065-086>088-099>101-113>116-118-119-134>141-150-122000- ...SOUTHEAST GEORGIA... CITY SKY/WX TMP DP RH WIND PRES REMARKS SAVANNAH ARPT MOSUNNY 63 39 41 W20G30 29.76F HUNTER AAF SUNNY 63 40 43 W21G30 29.73F FORT STEWART SUNNY 62 39 42 W17G26 29.76F STATESBORO SUNNY 61 28 29 W21G28 29.79R SYLVANIA CLEAR 60 38 43 NW18G28 29.77S CLAXTON FAIR 62 37 39 W22G29 29.79F ...CSRA...CENTRAL AND FAR SOUTHEAST GEORGIA... CITY SKY/WX TMP DP RH WIND PRES REMARKS THOMSON PTSUNNY 56 30 38 N21G29 29.85S AUGUSTA-BUSH SUNNY 60 32 34 NW22G35 29.77R AUGUSTA-DANIEL SUNNY 58 31 35 NW20G26 29.78S SWAINSBORO FAIR 59 34 38 W13G26 29.81S VIDALIA SUNNY 61 36 39 W15G21 29.83R EASTMAN FAIR 61 12 15 NW16G28 29.89S HAZLEHURST FAIR 62 17 17 NW9G17 29.84R ALMA SUNNY 62 37 39 NW17G25 29.83F WAYCROSS SUNNY 63 31 30 NW17G31 29.84R JESUP FAIR 64 37 36 W22 29.81F BAXLEY FAIR 59 34 38 W17G24 29.83S BRUNSWICK SUNNY 64 41 42 W21G29 29.80F SAINT SIMONS NOT AVBL $$ SCZ027-028-034-036>038-045-046-048>050-GAZ119-141-122000- ...LAKE AND SUPPLEMENTAL COASTAL OBSERVATIONS... STATION/POSITION TIME TEMP WIND PRES WAVE SWELL AIR SEA DIR/SP/G HT/PER HT/PER/DIR (UTC) (F) (DEG/KT/KT) (MB) (FT/S) (FT/S/D) WINYAH BAY 1845 60 260/ 10 1004.0F LAKE MURRAY 1830 55 280/ 11/ 18 1005.4S ACE BASIN NERRS 1845 60 250/ 7 1006.0F FORT PULASKI 1900 60 55 280/ 20/ 27 1007.5 SAPELO ISLAND NOT AVBL $$ ANZ835-935-AMZ111-154-330-350-352-354-370-450-454-472-122000- ...C-MAN AND BUOY OBSERVATIONS... STATION/POSITION TIME TEMP WIND PRES WAVE SWELL AIR SEA DIR/SP/G HT/PER HT/PER/DIR (UTC) (F) (DEG/KT/KT) (MB) (FT/S) (FT/S/D) BUOY 41004 1910 66 75 250/ 29/ 35 1004.2 BUOY 41008 1850 62 62 260/ 17/ 19 1007.6R 4/ 5 FOLLY BEACH CMAN 1900 61 250/ 10/ 14 1005.6F CAPERS NEARSHORE 1908 54 56 230/ 17/ 23 1003.8F FRIPP NEARSHORE 1908 57 58 250/ 17/ 27 1006.7R STATION/POSITION TIME TEMP WIND PRES WAVE SWELL AIR SEA DIR/SP/G HT/PER HT/PER/DIR (UTC) (F) (DEG/KT/KT) (MB) (FT/S) (FT/S/D) 5E ST. MARYS GA 1900 62 N/A 3/ 3 FRYING PAN BUOY 1910 65 67 230/ 25/ 31 1002.3 BUOY 41025 1910 66 74 230/ 29/ 37 1000.7 CAPE LOOKOUT NC 1900 230/ 14/ 19 1001.6F BUOY 41002 1850 70 75 210/ 25/ 33 1006.5F 8/ 7 2/160/12 BUOY 41010 NOT AVBL ST AUGUSTINE FL 1900 71 62 240/ 17/ 25 1009.8F $$

USA.gov is the U.S. government's official web portal to all federal, state and local government web resources and services.